Home > Weather > Ramat Gan > Past weeks

Flag for Israel Weather for the Past 2 Weeks in Ramat Gan, Israel

Now
55 °F

Light rain. Broken clouds.


Feels Like: 51 °F
Forecast: 53 / 58 °F
Wind: 16 mph from West

Location: Dov Airport

Current Time: Feb 6, 2016 at 6:03:45 PM

Latest Report: Feb 6, 2016 at 4:50 PM


Visibility: N/A

Pressure: 29.92 "Hg

Humidity: 82%

Dew point: 50 °F

Location of Ramat GanLocation

Historic Weather in Ramat Gan — Graph

°F

Ramat Gan Temperature Yesterday

Maximum temperature yesterday: 70 °F (at 1:50 PM)
Minimum temperature yesterday: 55 °F (at 6:50 AM)
Average temperature yesterday: 64 °F

High & Low Weather Summary for the Past Weeks

 TemperatureHumidityPressure
High75 °F (Feb 4, 12:50 PM)93% (Jan 25, 11:50 PM)30.42 "Hg (Jan 25, 11:50 PM)
Low39 °F (Jan 28, 5:50 AM)22% (Feb 4, 12:50 PM)29.92 "Hg (Feb 5, 12:50 PM)
Average55 °F65%30.17 "Hg
* Reported Jan 22 4:50 PM — Feb 6 4:50 PM, Ramat Gan, Weather by CustomWeather, © 2016

Note: Actual official high and low records may vary slightly from our data, if they occured in-between our weather recording intervals... More about our weather records

Advertising

Ramat Gan Weather History for the Previous 24 Hours

 ConditionsComfort  
Time TempWeatherWind HumidityBarometerVisibility
4:50 PM
Sat, Feb 6
55 °FLight rain. Broken clouds.16 mph82%29.92 "HgN/A
3:50 PM57 °FBroken clouds.18 mph77%29.92 "HgN/A
2:50 PM57 °FRain. Broken clouds.22 mph77%29.92 "Hg5 mi
1:50 PM55 °FLight rain. Broken clouds.30 mph82%29.92 "Hg4 mi
12:50 PM55 °FRain. Partly sunny.25 mph88%29.92 "Hg4 mi
11:50 AM63 °FLight rain. Scattered clouds.28 mph64%29.95 "Hg6 mi
11:00 AM63 °FScattered clouds.25 mph64%29.95 "HgN/A
10:03 AM61 °FScattered clouds.25 mph72%29.98 "HgN/A
9:50 AM61 °FPartly sunny.25 mph68%29.98 "HgN/A
8:50 AM63 °FScattered clouds.23 mph64%29.98 "HgN/A
7:50 AM63 °FPassing clouds.23 mph56%29.98 "HgN/A
6:50 AM63 °FScattered clouds.23 mph59%29.95 "HgN/A
6:00 AM63 °FPassing clouds.20 mph73%29.98 "Hg6 mi
9:50 PM
Fri, Feb 5
63 °FPassing clouds.8 mph77%30.01 "Hg6 mi
8:50 PM63 °FPassing clouds.10 mph77%30.01 "Hg6 mi
7:50 PM63 °FPassing clouds.8 mph83%29.98 "Hg6 mi
6:50 PM63 °FPassing clouds.9 mph83%29.98 "Hg4 mi
Weather by CustomWeather, © 2016

See weather overviewHow to use our weather pages